"read_dt","SO2 (ppb)","flags","PMT voltage (V)","lamp voltage (V)","lamp intensity (Hz)","internal temp (C)","react chamber temp (C)","sample flow (l/min)","pres (mmHg)","SO2 bkg (ppb)","SO2 coefficient"
2014-04-20 00:00:00,3310E-2,5C000400,-0724,1041,10143,028.6,045.3,0.000,750.3,01.17,0.508
2014-04-20 00:01:00,3321E-2,5C000400,-0724,1040,10209,028.5,045.4,0.000,750.3,01.17,0.508
2014-04-20 00:02:00,3365E-2,5C000400,-0724,1039,10191,028.5,045.3,0.000,750.3,01.17,0.508
2014-04-20 00:03:00,3335E-2,5C000400,-0724,1039,10124,028.5,045.3,0.000,750.2,01.17,0.508
2014-04-20 00:04:00,3330E-2,5C000400,-0724,1039,10103,028.5,045.3,0.000,750.3,01.17,0.508
2014-04-20 00:05:00,3336E-2,5C000400,-0724,1039,10061,028.5,045.3,0.000,750.3,01.17,0.508
2014-04-20 00:06:00,3316E-2,5C000400,-0724,1038,10256,028.5,045.3,0.000,750.3,01.17,0.508
2014-04-20 00:07:00,3335E-2,5C000400,-0724,1038,10185,028.6,045.3,0.000,750.3,01.17,0.508
2014-04-20 00:08:00,3352E-2,5C000400,-0724,1038,10188,028.6,045.3,0.000,750.3,01.17,0.508
2014-04-20 00:09:00,3306E-2,5C000400,-0724,1036,10165,028.5,045.3,0.000,750.3,01.17,0.508
2014-04-20 00:10:00,3341E-2,5C000400,-0724,1037,10105,028.6,045.3,0.000,750.3,01.17,0.508
2014-04-20 00:11:00,3342E-2,5C000400,-0724,1037,10128,028.6,045.3,0.000,750.2,01.17,0.508
2014-04-20 00:12:00,3313E-2,5C000400,-0724,1036,10048,028.6,045.3,0.000,750.2,01.17,0.508
2014-04-20 00:13:00,3332E-2,5C000400,-0724,1037,9991,028.6,045.3,0.000,750.3,01.17,0.508
2014-04-20 00:14:00,3314E-2,5C000400,-0724,1036,10045,028.6,045.3,0.000,750.3,01.17,0.508
2014-04-20 00:15:00,3261E-2,5C000400,-0724,1037,10045,028.6,045.3,0.000,750.3,01.17,0.508
2014-04-20 00:16:00,3378E-2,5C000400,-0724,1038,10155,028.6,045.3,0.000,750.3,01.17,0.508
2014-04-20 00:17:00,3328E-2,5C000400,-0724,1037,10092,028.6,045.4,0.000,750.3,01.17,0.508
2014-04-20 00:18:00,3319E-2,5C000400,-0724,1036,10227,028.6,045.3,0.000,750.3,01.17,0.508
2014-04-20 00:19:00,3364E-2,5C000400,-0724,1037,10049,028.6,045.3,0.000,750.3,01.17,0.508
2014-04-20 00:20:00,3318E-2,5C000400,-0724,1037,10126,028.6,045.3,0.000,750.2,01.17,0.508
2014-04-20 00:21:00,3354E-2,5C000400,-0724,1036,10209,028.6,045.4,0.000,750.2,01.17,0.508
2014-04-20 00:22:00,3339E-2,5C000400,-0724,1036,10108,028.6,045.4,0.000,750.2,01.17,0.508
2014-04-20 00:23:00,3327E-2,5C000400,-0724,1036,10195,028.6,045.3,0.000,750.2,01.17,0.508
2014-04-20 00:24:00,3304E-2,5C000400,-0724,1036,10234,028.7,045.3,0.000,750.2,01.17,0.508
2014-04-20 00:25:00,3308E-2,5C000400,-0724,1036,10095,028.7,045.3,0.000,750.2,01.17,0.508
2014-04-20 00:26:00,3339E-2,5C000400,-0724,1036,10054,028.6,045.3,0.000,750.3,01.17,0.508
2014-04-20 00:27:00,3323E-2,5C000400,-0724,1036,10121,028.7,045.4,0.000,750.3,01.17,0.508
2014-04-20 00:28:00,3324E-2,5C000400,-0724,1036,10298,028.7,045.3,0.000,750.3,01.17,0.508
2014-04-20 00:29:00,3319E-2,5C000400,-0724,1035,10190,028.7,045.4,0.000,750.2,01.17,0.508
2014-04-20 00:30:00,3295E-2,5C000400,-0724,1035,10250,028.7,045.4,0.000,750.2,01.17,0.508
2014-04-20 00:31:00,3293E-2,5C000400,-0724,1035,10131,028.7,045.4,0.000,750.2,01.17,0.508
2014-04-20 00:32:00,3321E-2,5C000400,-0724,1035,10186,028.7,045.3,0.000,750.2,01.17,0.508
2014-04-20 00:33:00,3284E-2,5C000400,-0724,1035,10143,028.7,045.3,0.000,750.2,01.17,0.508
2014-04-20 00:34:00,3338E-2,5C000400,-0724,1035,10056,028.7,045.3,0.000,750.2,01.17,0.508
2014-04-20 00:35:00,3297E-2,5C000400,-0724,1035,10122,028.7,045.3,0.000,750.3,01.17,0.508
2014-04-20 00:36:00,3301E-2,5C000410,-0724,1034,10209,028.7,045.4,0.000,750.3,01.17,0.508
2014-04-20 00:37:00,3292E-2,5C000400,-0724,1035,10183,028.8,045.3,0.000,750.3,01.17,0.508
2014-04-20 00:38:00,3311E-2,5C000400,-0724,1035,10209,028.8,045.4,0.000,750.3,01.17,0.508
2014-04-20 00:39:00,3298E-2,5C000400,-0724,1034,10192,028.8,045.3,0.000,750.3,01.17,0.508
2014-04-20 00:40:00,3295E-2,5C000400,-0724,1034,10143,028.8,045.4,0.000,750.3,01.17,0.508
2014-04-20 00:41:00,3294E-2,5C000400,-0724,1033,10114,028.8,045.3,0.000,750.3,01.17,0.508
2014-04-20 00:42:00,3289E-2,5C000400,-0724,1035,10267,028.8,045.3,0.000,750.3,01.17,0.508
2014-04-20 00:43:00,3297E-2,5C000400,-0724,1034,10219,028.8,045.3,0.000,750.4,01.17,0.508
2014-04-20 00:44:00,3279E-2,5C000400,-0724,1035,10079,028.8,045.3,0.000,750.4,01.17,0.508
2014-04-20 00:45:00,3272E-2,5C000400,-0724,1034,10131,028.8,045.3,0.000,750.3,01.17,0.508
2014-04-20 00:46:00,3284E-2,5C000400,-0724,1033,10089,028.8,045.3,0.000,750.3,01.17,0.508
2014-04-20 00:47:00,3292E-2,5C000400,-0724,1034,10171,028.9,045.4,0.000,750.4,01.17,0.508
2014-04-20 00:48:00,3338E-2,5C000400,-0724,1034,10251,028.9,045.4,0.000,750.3,01.17,0.508
2014-04-20 00:49:00,3244E-2,5C000400,-0724,1034,10124,028.9,045.4,0.000,750.3,01.17,0.508
2014-04-20 00:50:00,3314E-2,5C000400,-0724,1033,10263,028.9,045.3,0.000,750.3,01.17,0.508
2014-04-20 00:51:00,3268E-2,5C000400,-0724,1033,10211,028.9,045.3,0.000,750.3,01.17,0.508
2014-04-20 00:52:00,3301E-2,5C000400,-0724,1032,10226,028.9,045.4,0.000,750.3,01.17,0.508
2014-04-20 00:53:00,3286E-2,5C000400,-0724,1033,10260,028.9,045.4,0.000,750.4,01.17,0.508
2014-04-20 00:54:00,3250E-2,5C000400,-0724,1033,10293,028.9,045.4,0.000,750.3,01.17,0.508
2014-04-20 00:55:00,3267E-2,5C000400,-0724,1034,10176,028.9,045.3,0.000,750.3,01.17,0.508
2014-04-20 00:56:00,3321E-2,5C000400,-0724,1033,9980,028.9,045.3,0.000,750.3,01.17,0.508
2014-04-20 00:57:00,3272E-2,5C000400,-0724,1033,10279,029.0,045.4,0.000,750.3,01.17,0.508
2014-04-20 00:58:00,3270E-2,5C000400,-0724,1032,10231,029.0,045.3,0.000,750.4,01.17,0.508
2014-04-20 00:59:00,3286E-2,5C000400,-0724,1034,10150,029.0,045.4,0.000,750.4,01.17,0.508
2014-04-20 01:00:00,3311E-2,5C000400,-0724,1033,10023,029.0,045.3,0.000,750.3,01.17,0.508
2014-04-20 01:01:00,3274E-2,5C000400,-0724,1034,10097,029.0,045.4,0.000,750.3,01.17,0.508
2014-04-20 01:02:00,3250E-2,5C000400,-0724,1034,10266,029.0,045.3,0.000,750.4,01.17,0.508
2014-04-20 01:03:00,3288E-2,5C000400,-0724,1035,10194,029.0,045.3,0.000,750.4,01.17,0.508
2014-04-20 01:04:00,3283E-2,5C000400,-0724,1033,10244,029.0,045.4,0.000,750.4,01.17,0.508
2014-04-20 01:05:00,3345E-2,5C000400,-0724,1033,10290,029.0,045.4,0.000,750.4,01.17,0.508
2014-04-20 01:06:00,3284E-2,5C000400,-0724,1034,10281,029.0,045.4,0.000,750.4,01.17,0.508
2014-04-20 01:07:00,3289E-2,5C000400,-0724,1034,10298,029.0,045.3,0.000,750.3,01.17,0.508
2014-04-20 01:08:00,3264E-2,5C000400,-0724,1034,10064,029.1,045.4,0.000,750.4,01.17,0.508
2014-04-20 01:09:00,3346E-2,5C000400,-0724,1033,10235,029.1,045.3,0.000,750.3,01.17,0.508
2014-04-20 01:10:00,3333E-2,5C000400,-0724,1034,10000,029.1,045.3,0.000,750.4,01.17,0.508
2014-04-20 01:11:00,3311E-2,5C000400,-0724,1034,10269,029.1,045.4,0.000,750.4,01.17,0.508
2014-04-20 01:12:00,3228E-2,5C000400,-0724,1034,10108,029.1,045.4,0.000,750.4,01.17,0.508
2014-04-20 01:13:00,3254E-2,5C000400,-0724,1033,10202,029.1,045.3,0.000,750.4,01.17,0.508
2014-04-20 01:14:00,3314E-2,5C000400,-0724,1033,10208,029.1,045.3,0.000,750.4,01.17,0.508
2014-04-20 01:15:00,3296E-2,5C000400,-0724,1033,10302,029.1,045.4,0.000,750.4,01.17,0.508
2014-04-20 01:16:00,3292E-2,5C000400,-0724,1033,10295,029.1,045.4,0.000,750.4,01.17,0.508
2014-04-20 01:17:00,3313E-2,5C000400,-0724,1034,10182,029.0,045.4,0.000,750.4,01.17,0.508
2014-04-20 01:18:00,3293E-2,5C000400,-0724,1033,10119,029.0,045.3,0.000,750.4,01.17,0.508
2014-04-20 01:19:00,3269E-2,5C000410,-0724,1032,10283,029.0,045.4,0.000,750.4,01.17,0.508
2014-04-20 01:20:00,3236E-2,5C000400,-0724,1034,10024,029.0,045.4,0.000,750.5,01.17,0.508
2014-04-20 01:21:00,3257E-2,5C000400,-0724,1034,10277,029.0,045.4,0.000,750.5,01.17,0.508
2014-04-20 01:22:00,3248E-2,5C000400,-0724,1033,10138,029.0,045.4,0.000,750.4,01.17,0.508
2014-04-20 01:23:00,3256E-2,5C000400,-0724,1034,10055,029.0,045.4,0.000,750.4,01.17,0.508
2014-04-20 01:24:00,3276E-2,5C000400,-0724,1033,10232,029.0,045.3,0.000,750.4,01.17,0.508
2014-04-20 01:25:00,3272E-2,5C000400,-0724,1033,10345,028.9,045.4,0.000,750.4,01.17,0.508
2014-04-20 01:26:00,3319E-2,5C000400,-0724,1034,10239,028.9,045.4,0.000,750.4,01.17,0.508
2014-04-20 01:27:00,3300E-2,5C000400,-0724,1033,10291,028.9,045.3,0.000,750.4,01.17,0.508
2014-04-20 01:28:00,3279E-2,5C000400,-0724,1032,10027,028.9,045.4,0.000,750.4,01.17,0.508
2014-04-20 01:29:00,3288E-2,5C000400,-0724,1032,10357,028.9,045.3,0.000,750.4,01.17,0.508
2014-04-20 01:30:00,3264E-2,5C000400,-0724,1032,10333,028.9,045.3,0.000,750.4,01.17,0.508
2014-04-20 01:31:00,3307E-2,5C000400,-0724,1033,10148,028.9,045.4,0.000,750.5,01.17,0.508
2014-04-20 01:32:00,3350E-2,5C000400,-0724,1033,10249,028.9,045.3,0.000,750.4,01.17,0.508
2014-04-20 01:33:00,3302E-2,5C000400,-0724,1032,10144,028.9,045.3,0.000,750.4,01.17,0.508
2014-04-20 01:34:00,3299E-2,5C000400,-0724,1032,10132,028.9,045.3,0.000,750.4,01.17,0.508
2014-04-20 01:35:00,3335E-2,5C000400,-0724,1033,10325,028.9,045.3,0.000,750.4,01.17,0.508
2014-04-20 01:36:00,3173E-2,5C000400,-0724,1024,10314,028.9,045.3,0.000,750.4,01.17,0.508
2014-04-20 01:37:00,3043E-2,5C000400,-0724,1026,10255,028.9,045.4,0.000,750.5,01.17,0.508
2014-04-20 01:38:00,3048E-2,5C000400,-0724,1027,10186,028.8,045.4,0.000,750.5,01.17,0.508
2014-04-20 01:39:00,3044E-2,5C000400,-0724,1027,10190,028.8,045.4,0.000,750.4,01.17,0.508
2014-04-20 01:40:00,3075E-2,5C000400,-0724,1028,10359,028.8,045.3,0.000,750.4,01.17,0.508
2014-04-20 01:41:00,3088E-2,5C000400,-0724,1027,10179,028.8,045.4,0.000,750.5,01.17,0.508
2014-04-20 01:42:00,3050E-2,5C000400,-0724,1027,10177,028.8,045.3,0.000,750.4,01.17,0.508
2014-04-20 01:43:00,3089E-2,5C000400,-0724,1027,10234,028.8,045.3,0.000,750.5,01.17,0.508
2014-04-20 01:44:00,3103E-2,5C000400,-0724,1029,10329,028.8,045.4,0.000,750.5,01.17,0.508
2014-04-20 01:45:00,3078E-2,5C000400,-0724,1027,10239,028.8,045.4,0.000,750.4,01.17,0.508
2014-04-20 01:46:00,3128E-2,5C000400,-0724,1027,10134,028.8,045.3,0.000,750.5,01.17,0.508
2014-04-20 01:47:00,3130E-2,5C000400,-0724,1026,10246,028.7,045.3,0.000,750.5,01.17,0.508
2014-04-20 01:48:00,3082E-2,5C000400,-0724,1027,10248,028.7,045.4,0.000,750.5,01.17,0.508
2014-04-20 01:49:00,3095E-2,5C000400,-0724,1028,10363,028.8,045.3,0.000,750.5,01.17,0.508
2014-04-20 01:50:00,3094E-2,5C000400,-0724,1028,10211,028.8,045.3,0.000,750.6,01.17,0.508
2014-04-20 01:51:00,3079E-2,5C000400,-0724,1028,10359,028.7,045.3,0.000,750.5,01.17,0.508
2014-04-20 01:52:00,3066E-2,5C000400,-0724,1026,10234,028.7,045.3,0.000,750.6,01.17,0.508
2014-04-20 01:53:00,3111E-2,5C000400,-0724,1027,10247,028.7,045.3,0.000,750.6,01.17,0.508
2014-04-20 01:54:00,3089E-2,5C000400,-0724,1028,10317,028.8,045.4,0.000,750.6,01.17,0.508
2014-04-20 01:55:00,3060E-2,5C000400,-0724,1028,10291,028.7,045.3,0.000,750.6,01.17,0.508
2014-04-20 01:56:00,3109E-2,5C000400,-0724,1027,10043,028.7,045.3,0.000,750.6,01.17,0.508
2014-04-20 01:57:00,3069E-2,5C000400,-0724,1027,10128,028.7,045.3,0.000,750.6,01.17,0.508
2014-04-20 01:58:00,3117E-2,5C000400,-0724,1029,10264,028.7,045.3,0.000,750.5,01.17,0.508
2014-04-20 01:59:00,3068E-2,5C000400,-0724,1028,10385,028.7,045.3,0.000,750.6,01.17,0.508
2014-04-20 02:00:00,3099E-2,5C000400,-0724,1028,10214,028.7,045.3,0.000,750.6,01.17,0.508
2014-04-20 02:01:00,3087E-2,5C000400,-0724,1026,10150,028.7,045.3,0.000,750.6,01.17,0.508
2014-04-20 02:02:00,3081E-2,5C000400,-0724,1026,10377,028.6,045.3,0.000,750.5,01.17,0.508
2014-04-20 02:03:00,3063E-2,5C000400,-0724,1028,10231,028.6,045.3,0.000,750.6,01.17,0.508
2014-04-20 02:04:00,3102E-2,5C000400,-0724,1027,10119,028.6,045.4,0.000,750.5,01.17,0.508
2014-04-20 02:05:00,3083E-2,5C000400,-0724,1027,10213,028.6,045.3,0.000,750.5,01.17,0.508
2014-04-20 02:06:00,3066E-2,5C000400,-0724,1027,10301,028.6,045.3,0.000,750.5,01.17,0.508
2014-04-20 02:07:00,3090E-2,5C000400,-0724,1027,10156,028.6,045.4,0.000,750.5,01.17,0.508
2014-04-20 02:08:00,3095E-2,5C000400,-0724,1028,10292,028.6,045.3,0.000,750.5,01.17,0.508
2014-04-20 02:09:00,3074E-2,5C000400,-0724,1027,10284,028.6,045.3,0.000,750.5,01.17,0.508
2014-04-20 02:10:00,3078E-2,5C000400,-0724,1027,10168,028.6,045.4,0.000,750.5,01.17,0.508
2014-04-20 02:11:00,3083E-2,5C000400,-0724,1029,10252,028.6,045.3,0.000,750.5,01.17,0.508
2014-04-20 02:12:00,3134E-2,5C000400,-0724,1029,10266,028.6,045.4,0.000,750.5,01.17,0.508
2014-04-20 02:13:00,3109E-2,5C000400,-0724,1028,10260,028.6,045.3,0.000,750.4,01.17,0.508
2014-04-20 02:14:00,3078E-2,5C000400,-0724,1027,10329,028.6,045.3,0.000,750.4,01.17,0.508
2014-04-20 02:15:00,3110E-2,5C000400,-0724,1026,10332,028.6,045.3,0.000,750.4,01.17,0.508
2014-04-20 02:16:00,3093E-2,5C000400,-0724,1027,10170,028.5,045.3,0.000,750.5,01.17,0.508
2014-04-20 02:17:00,3083E-2,5C000400,-0724,1028,10310,028.5,045.3,0.000,750.4,01.17,0.508
2014-04-20 02:18:00,3103E-2,5C000400,-0724,1028,10199,028.5,045.3,0.000,750.4,01.17,0.508
2014-04-20 02:19:00,3057E-2,5C000400,-0724,1028,10272,028.5,045.3,0.000,750.4,01.17,0.508
2014-04-20 02:20:00,3081E-2,5C000400,-0724,1028,10022,028.5,045.3,0.000,750.4,01.17,0.508
2014-04-20 02:21:00,3071E-2,5C000400,-0724,1028,10248,028.5,045.3,0.000,750.4,01.17,0.508
2014-04-20 02:22:00,3127E-2,5C000400,-0724,1028,10270,028.5,045.3,0.000,750.4,01.17,0.508
2014-04-20 02:23:00,3100E-2,5C000400,-0724,1029,10248,028.5,045.4,0.000,750.4,01.17,0.508
2014-04-20 02:24:00,3111E-2,5C000400,-0724,1027,10324,028.5,045.3,0.000,750.4,01.17,0.508
2014-04-20 02:25:00,3081E-2,5C000400,-0724,1027,10262,028.5,045.3,0.000,750.4,01.17,0.508
2014-04-20 02:26:00,3082E-2,5C000400,-0724,1026,10297,028.5,045.3,0.000,750.4,01.17,0.508
2014-04-20 02:27:00,3089E-2,5C000400,-0724,1027,10396,028.5,045.3,0.000,750.4,01.17,0.508
2014-04-20 02:28:00,3132E-2,5C000400,-0724,1027,10224,028.5,045.4,0.000,750.3,01.17,0.508
2014-04-20 02:29:00,3057E-2,5C000400,-0724,1027,10186,028.4,045.3,0.000,750.4,01.17,0.508
2014-04-20 02:30:00,3114E-2,5C000400,-0724,1027,10363,028.5,045.3,0.000,750.4,01.17,0.508
2014-04-20 02:31:00,3108E-2,5C000400,-0724,1026,10150,028.5,045.3,0.000,750.3,01.17,0.508
2014-04-20 02:32:00,3086E-2,5C000400,-0724,1028,10148,028.5,045.3,0.000,750.3,01.17,0.508
2014-04-20 02:33:00,3135E-2,5C000400,-0724,1027,10309,028.4,045.3,0.000,750.3,01.17,0.508
2014-04-20 02:34:00,3096E-2,5C000400,-0724,1027,10294,028.5,045.3,0.000,750.3,01.17,0.508
2014-04-20 02:35:00,3158E-2,5C000400,-0724,1027,10210,028.4,045.3,0.000,750.3,01.17,0.508
2014-04-20 02:36:00,3127E-2,5C000400,-0724,1027,10128,028.4,045.4,0.000,750.3,01.17,0.508
2014-04-20 02:37:00,3175E-2,5C000400,-0724,1027,10048,028.4,045.3,0.000,750.3,01.17,0.508
2014-04-20 02:38:00,3125E-2,5C000400,-0724,1027,10254,028.4,045.3,0.000,750.3,01.17,0.508
2014-04-20 02:39:00,3167E-2,5C000400,-0724,1027,10315,028.3,045.3,0.000,750.3,01.17,0.508
2014-04-20 02:40:00,3173E-2,5C000400,-0724,1026,10337,028.3,045.3,0.000,750.3,01.17,0.508
2014-04-20 02:41:00,3124E-2,5C000400,-0724,1027,10163,028.3,045.3,0.000,750.2,01.17,0.508
2014-04-20 02:42:00,3113E-2,5C000400,-0724,1025,10237,028.3,045.3,0.000,750.2,01.17,0.508
2014-04-20 02:43:00,3118E-2,5C000400,-0724,1027,10210,028.3,045.3,0.000,750.3,01.17,0.508
2014-04-20 02:44:00,3151E-2,5C000400,-0724,1028,10361,028.3,045.3,0.000,750.3,01.17,0.508
2014-04-20 02:45:00,3092E-2,5C000400,-0724,1028,10378,028.3,045.3,0.000,750.2,01.17,0.508
2014-04-20 02:46:00,3139E-2,5C000400,-0724,1027,10286,028.3,045.3,0.000,750.2,01.17,0.508
2014-04-20 02:47:00,3142E-2,5C000400,-0724,1027,10069,028.3,045.3,0.000,750.2,01.17,0.508
2014-04-20 02:48:00,3106E-2,5C000400,-0724,1027,10241,028.2,045.3,0.000,750.2,01.17,0.508
2014-04-20 02:49:00,3124E-2,5C000400,-0724,1027,10255,028.2,045.3,0.000,750.2,01.17,0.508
2014-04-20 02:50:00,3139E-2,5C000400,-0724,1027,10367,028.2,045.3,0.000,750.2,01.17,0.508
2014-04-20 02:51:00,3132E-2,5C000400,-0724,1027,10246,028.2,045.3,0.000,750.2,01.17,0.508
2014-04-20 02:52:00,3176E-2,5C000400,-0724,1027,10249,028.2,045.4,0.000,750.2,01.17,0.508
2014-04-20 02:53:00,3113E-2,5C000400,-0724,1026,10191,028.2,045.4,0.000,750.2,01.17,0.508
2014-04-20 02:54:00,3129E-2,5C000400,-0724,1027,10299,028.2,045.3,0.000,750.1,01.17,0.508
2014-04-20 02:55:00,3115E-2,5C000400,-0724,1026,10392,028.2,045.3,0.000,750.1,01.17,0.508
2014-04-20 02:56:00,3135E-2,5C000400,-0724,1025,10378,028.1,045.3,0.000,750.1,01.17,0.508
2014-04-20 02:57:00,3123E-2,5C000400,-0724,1025,10184,028.1,045.3,0.000,750.1,01.17,0.508
2014-04-20 02:58:00,3132E-2,5C000400,-0724,1023,10226,028.1,045.3,0.000,750.1,01.17,0.508
2014-04-20 02:59:00,3110E-2,5C000400,-0724,1023,10360,028.1,045.3,0.000,750.2,01.17,0.508
2014-04-20 03:00:00,3092E-2,5C000400,-0724,1022,10339,028.1,045.3,0.000,750.2,01.17,0.508
2014-04-20 03:01:00,3111E-2,5C000400,-0724,1021,10352,028.1,045.3,0.000,750.1,01.17,0.508
2014-04-20 03:02:00,3110E-2,5C000400,-0724,1022,10366,028.1,045.3,0.000,750.1,01.17,0.508
2014-04-20 03:03:00,3100E-2,5C000400,-0724,1023,10429,028.1,045.3,0.000,750.1,01.17,0.508
2014-04-20 03:04:00,3128E-2,5C000400,-0724,1022,10316,028.1,045.3,0.000,750.1,01.17,0.508
2014-04-20 03:05:00,3088E-2,5C000400,-0724,1021,10305,028.1,045.3,0.000,750.1,01.17,0.508
2014-04-20 03:06:00,3144E-2,5C000400,-0724,1022,10174,028.1,045.3,0.000,750.1,01.17,0.508
2014-04-20 03:07:00,3105E-2,5C000400,-0724,1022,10292,028.1,045.3,0.000,750.1,01.17,0.508
2014-04-20 03:08:00,3140E-2,5C000400,-0724,1021,10249,028.0,045.3,0.000,750.1,01.17,0.508
2014-04-20 03:09:00,3082E-2,5C000400,-0724,1020,10291,028.0,045.3,0.000,750.1,01.17,0.508
2014-04-20 03:10:00,3127E-2,5C000400,-0724,1021,10277,028.0,045.3,0.000,750.1,01.17,0.508
2014-04-20 03:11:00,3100E-2,5C000400,-0724,1019,10379,028.0,045.3,0.000,750.0,01.17,0.508
2014-04-20 03:12:00,3122E-2,5C000400,-0724,1021,10263,028.0,045.3,0.000,750.1,01.17,0.508
2014-04-20 03:13:00,3068E-2,5C000400,-0724,1021,10312,028.0,045.3,0.000,750.1,01.17,0.508
2014-04-20 03:14:00,3095E-2,5C000400,-0724,1021,10272,028.0,045.3,0.000,750.1,01.17,0.508
2014-04-20 03:15:00,3077E-2,5C000400,-0724,1022,10298,028.0,045.3,0.000,750.0,01.17,0.508
2014-04-20 03:16:00,3086E-2,5C000400,-0724,1020,10369,028.0,045.3,0.000,750.1,01.17,0.508
2014-04-20 03:17:00,3063E-2,5C000400,-0724,1020,10110,028.0,045.3,0.000,750.0,01.17,0.508
2014-04-20 03:18:00,3068E-2,5C000400,-0724,1020,10158,028.0,045.4,0.000,750.0,01.17,0.508
2014-04-20 03:19:00,3075E-2,5C000400,-0724,1021,10482,027.9,045.3,0.000,750.0,01.17,0.508
2014-04-20 03:20:00,3067E-2,5C000400,-0724,1021,10272,028.0,045.3,0.000,749.9,01.17,0.508
2014-04-20 03:21:00,3055E-2,5C000400,-0724,1020,10345,027.9,045.3,0.000,750.0,01.17,0.508
2014-04-20 03:22:00,3028E-2,5C000400,-0724,1021,10271,028.0,045.3,0.000,750.0,01.17,0.508
2014-04-20 03:23:00,3032E-2,5C000400,-0724,1021,10128,028.0,045.3,0.000,749.9,01.17,0.508
2014-04-20 03:24:00,3099E-2,5C000400,-0724,1021,10278,027.9,045.3,0.000,750.0,01.17,0.508
2014-04-20 03:25:00,3070E-2,5C000400,-0724,1021,10291,027.9,045.3,0.000,750.0,01.17,0.508
2014-04-20 03:26:00,3058E-2,5C000400,-0724,1021,10098,027.9,045.3,0.000,749.9,01.17,0.508
2014-04-20 03:27:00,3056E-2,5C000400,-0724,1022,10429,027.9,045.3,0.000,750.0,01.17,0.508
2014-04-20 03:28:00,3085E-2,5C000400,-0724,1022,10382,027.9,045.3,0.000,750.0,01.17,0.508
2014-04-20 03:29:00,3088E-2,5C000400,-0724,1021,10261,027.9,045.3,0.000,749.9,01.17,0.508
2014-04-20 03:30:00,3043E-2,5C000400,-0724,1020,10356,027.9,045.3,0.000,749.9,01.17,0.508
2014-04-20 03:31:00,3050E-2,5C000400,-0724,1021,10412,027.9,045.3,0.000,749.9,01.17,0.508
2014-04-20 03:32:00,3049E-2,5C000400,-0724,1021,10277,027.8,045.3,0.000,749.9,01.17,0.508
2014-04-20 03:33:00,3045E-2,5C000400,-0724,1020,10072,027.9,045.3,0.000,749.8,01.17,0.508
2014-04-20 03:34:00,3076E-2,5C000400,-0724,1022,10358,027.9,045.3,0.000,749.9,01.17,0.508
2014-04-20 03:35:00,3005E-2,5C000400,-0724,1021,10399,027.9,045.3,0.000,749.8,01.17,0.508
2014-04-20 03:36:00,3042E-2,5C000400,-0724,1022,10349,027.8,045.3,0.000,749.8,01.17,0.508
2014-04-20 03:37:00,3111E-2,5C000400,-0724,1021,10195,027.9,045.3,0.000,749.8,01.17,0.508
2014-04-20 03:38:00,3060E-2,5C000400,-0724,1022,10355,027.8,045.3,0.000,749.8,01.17,0.508
2014-04-20 03:39:00,3062E-2,5C000400,-0724,1021,10262,027.8,045.3,0.000,749.8,01.17,0.508
2014-04-20 03:40:00,3085E-2,5C000400,-0724,1022,10226,027.8,045.3,0.000,749.9,01.17,0.508
2014-04-20 03:41:00,3085E-2,5C000400,-0724,1021,10328,027.8,045.3,0.000,749.9,01.17,0.508
2014-04-20 03:42:00,3056E-2,5C000400,-0724,1021,10132,027.8,045.3,0.000,749.9,01.17,0.508
2014-04-20 03:43:00,3049E-2,5C000400,-0724,1022,10210,027.8,045.3,0.000,749.8,01.17,0.508
2014-04-20 03:44:00,3041E-2,5C000400,-0724,1023,10433,027.8,045.3,0.000,749.8,01.17,0.508
2014-04-20 03:45:00,3073E-2,5C000400,-0724,1022,10269,027.8,045.3,0.000,749.8,01.17,0.508
2014-04-20 03:46:00,3120E-2,5C000400,-0724,1023,10254,027.8,045.3,0.000,749.8,01.17,0.508
2014-04-20 03:47:00,3066E-2,5C000400,-0724,1023,10242,027.8,045.3,0.000,749.8,01.17,0.508
2014-04-20 03:48:00,3074E-2,5C000400,-0724,1022,10314,027.7,045.3,0.000,749.8,01.17,0.508
2014-04-20 03:49:00,3076E-2,5C000400,-0724,1021,10280,027.7,045.3,0.000,749.8,01.17,0.508
2014-04-20 03:50:00,3046E-2,5C000400,-0724,1022,10226,027.7,045.3,0.000,749.8,01.17,0.508
2014-04-20 03:51:00,3061E-2,5C000400,-0724,1022,10158,027.7,045.3,0.000,749.8,01.17,0.508
2014-04-20 03:52:00,3084E-2,5C000400,-0724,1021,10357,027.7,045.3,0.000,749.8,01.17,0.508
2014-04-20 03:53:00,3074E-2,5C000400,-0724,1022,10356,027.7,045.3,0.000,749.7,01.17,0.508
2014-04-20 03:54:00,3060E-2,5C000400,-0724,1020,10210,027.7,045.3,0.000,749.7,01.17,0.508
2014-04-20 03:55:00,3079E-2,5C000400,-0724,1023,10459,027.7,045.3,0.000,749.7,01.17,0.508
2014-04-20 03:56:00,3079E-2,5C000400,-0724,1022,10237,027.7,045.3,0.000,749.7,01.17,0.508
2014-04-20 03:57:00,3081E-2,5C000400,-0724,1022,10298,027.6,045.3,0.000,749.7,01.17,0.508
2014-04-20 03:58:00,3094E-2,5C000400,-0724,1022,10325,027.6,045.3,0.000,749.6,01.17,0.508
2014-04-20 03:59:00,3070E-2,5C000400,-0724,1022,10343,027.6,045.3,0.000,749.6,01.17,0.508
2014-04-20 04:00:00,3080E-2,5C000400,-0724,1022,10291,027.6,045.3,0.000,749.6,01.17,0.508
2014-04-20 04:01:00,3087E-2,5C000400,-0724,1021,10385,027.6,045.3,0.000,749.6,01.17,0.508
2014-04-20 04:02:00,3089E-2,5C000400,-0724,1023,10299,027.6,045.3,0.000,749.6,01.17,0.508
2014-04-20 04:03:00,3126E-2,5C000400,-0724,1022,10329,027.6,045.3,0.000,749.5,01.17,0.508
2014-04-20 04:04:00,3113E-2,5C000400,-0724,1023,10312,027.6,045.3,0.000,749.5,01.17,0.508
2014-04-20 04:05:00,3082E-2,5C000400,-0724,1022,10195,027.6,045.3,0.000,749.5,01.17,0.508
2014-04-20 04:06:00,3147E-2,5C000400,-0724,1022,10489,027.6,045.3,0.000,749.4,01.17,0.508
2014-04-20 04:07:00,3118E-2,5C000400,-0724,1023,10357,027.6,045.3,0.000,749.4,01.17,0.508
2014-04-20 04:08:00,3077E-2,5C000400,-0724,1022,10135,027.6,045.3,0.000,749.3,01.17,0.508
2014-04-20 04:09:00,3105E-2,5C000400,-0724,1023,10168,027.5,045.3,0.000,749.4,01.17,0.508
2014-04-20 04:10:00,3126E-2,5C000400,-0724,1021,10341,027.6,045.3,0.000,749.4,01.17,0.508
2014-04-20 04:11:00,3121E-2,5C000400,-0724,1021,10320,027.5,045.3,0.000,749.3,01.17,0.508
2014-04-20 04:12:00,3120E-2,5C000400,-0724,1022,10298,027.5,045.3,0.000,749.3,01.17,0.508
2014-04-20 04:13:00,3117E-2,5C000400,-0724,1022,10240,027.5,045.3,0.000,749.3,01.17,0.508
2014-04-20 04:14:00,3116E-2,5C000400,-0724,1022,10213,027.5,045.3,0.000,749.2,01.17,0.508
2014-04-20 04:15:00,3122E-2,5C000400,-0724,1022,10310,027.5,045.3,0.000,749.2,01.17,0.508
2014-04-20 04:16:00,3117E-2,5C000400,-0724,1022,10292,027.5,045.3,0.000,749.2,01.17,0.508
2014-04-20 04:17:00,3080E-2,5C000400,-0724,1021,10212,027.5,045.3,0.000,749.1,01.17,0.508
2014-04-20 04:18:00,3125E-2,5C000400,-0724,1022,10128,027.5,045.3,0.000,749.2,01.17,0.508
2014-04-20 04:19:00,3088E-2,5C000400,-0724,1022,10247,027.5,045.3,0.000,749.2,01.17,0.508
2014-04-20 04:20:00,3152E-2,5C000400,-0724,1023,10022,027.5,045.3,0.000,749.1,01.17,0.508